Regional Weather Roundup
Issued by NWS

Home | Current Version | Previous Version | Text Only | Print | Product List | Glossary On
Versions: 1 2 3 4 5 6 7 8 9 10 11 12 13 14 15 16 17 18 19 20 21 22 23 24 25 26 27 28 29 30 31 32 33 34 35 36 37 38 39 40 41 42 43 44 45 46 47 48 49 50
000
ASUS45 KABQ 201110
RWRNM
WEATHER ROUNDUP FOR NEW MEXICO
NATIONAL WEATHER SERVICE ALBUQUERQUE NM
500 AM MDT SUN APR 20 2014

NOTE: "FAIR" MEANS FEW OR NO CLOUDS BELOW 12,000 FEET AGL WITH NO
       SIGNIFICANT WEATHER OR OBSTRUCTIONS TO VISION.

      THIS PRODUCT IS RELEASED AS TWO VERSIONS.  ONE VERSION NEAR
      THE TOP OF THE HOUR CONTAINING PRELIMINARY DATA FROM ALBUQUERQUE
      AND OTHER STATIONS.  A FINAL VERSION WITH ADDITIONAL DATA IS
      ISSUED ABOUT 10 MINUTES AFTER THE HOUR.

NMZ501-503-504-510>518-201200-
NORTHWEST PLATEAU/NORTHCENTRAL MOUNTAINS

CITY           SKY/WX    TMP DP  RH WIND       PRES   REMARKS
FARMINGTON     CLEAR     44  32  62 NW3       30.08F
LOS ALAMOS     MOCLDY    44  40  87 NW3       30.14F
SANTA FE       MOCLDY    45  41  86 W6        30.11S
TAOS           CLOUDY    45  39  81 E6        30.17S
ANGEL FIRE     CLOUDY    40  35  83 S3        30.18S

$$
NMZ402-403-502-505>509-201200-
WESTCENTRAL MOUNTAINS/SOUTHWEST MOUNTAINS

CITY           SKY/WX    TMP DP  RH WIND       PRES   REMARKS
GALLUP         CLEAR     37  32  82 CALM      30.18S
GRANTS         PTCLDY    32  31  93 CALM      30.17F
SILVER CITY    MOCLDY    45  41  87 NW8       30.17S

$$
NMZ407-409-411-412-201200-
SOUTHERN DESERTS

CITY           SKY/WX    TMP DP  RH WIND       PRES   REMARKS
LORDSBURG      FAIR      45  45 100 CALM      30.13R
DEMING         PTCLDY    46  44  93 CALM      30.12S
LAS CRUCES     PTCLDY    44  39  83 CALM      30.12F
HOLLOMAN AFB   PTCLDY    45  44  97 NE3       30.11R
ALAMOGORDO     PTCLDY    45  41  87 E3        30.12S
T OR C         CLOUDY    51  48  89 S6        30.11S

$$
NMZ519>523-201200-
CENTRAL VALLEYS/CENTRAL HIGHLANDS

CITY           SKY/WX    TMP DP  RH WIND       PRES   REMARKS
ALBUQUERQUE    PTCLDY    48  44  86 SE5       30.11F
MORIARTY ARPT  CLOUDY    43  39  85 CALM      30.13S
CLINES CORNERS CLOUDY    43  40  89 NW13      30.10F
BELEN          CLOUDY    49  47  93 S3        30.11F
SOCORRO        CLOUDY    50  49  94 SE5       30.11F

$$
NMZ524>526-539-540-201200-
SOUTHCENTRAL MOUNTAINS

CITY           SKY/WX    TMP DP  RH WIND       PRES   REMARKS
RUIDOSO        MOCLDY    43  39  87 W8        30.17F

$$
NMZ527>531-201200-
NORTHEAST HIGHLANDS/NORTHEAST PLAINS

CITY           SKY/WX    TMP DP  RH WIND       PRES   REMARKS
LAS VEGAS      CLOUDY    45  39  79 NE5       30.09S
RATON          CLOUDY    51  41  68 E3        30.06S
CLAYTON        CLOUDY    51  47  86 W12       30.03S

$$
NMZ532>537-201200-
EASTCENTRAL PLAINS

CITY           SKY/WX    TMP DP  RH WIND       PRES   REMARKS
TUCUMCARI      MOCLDY    53  48  83 SW16      30.01F
CANNON AFB     PTCLDY    50  45  83 SW8       30.07F
CLOVIS AIRPORT CLOUDY    50  46  87 SW6       30.10S

$$
NMZ028-029-538-201200-
SOUTHEAST PLAINS

CITY           SKY/WX    TMP DP  RH WIND       PRES   REMARKS
ROSWELL        CLEAR     46  43  89 S5        30.05F
ARTESIA        CLEAR     46  46 100 W5        30.07F
CARLSBAD       PTCLDY    56  51  84 W3        30.04F


$$



USA.gov is the U.S. government's official web portal to all federal, state and local government web resources and services.